Location: Newark
(35.2672°N, 80.7344°W)
Time: 02:02:34
(UTC+00:00)

Vanguard 1 - Pass Details

Date: 28 January 2020
Orbit: 650 x 3833 km, 34.2° (Epoch: 25 February)

Event Time Altitude Azimuth Distance (km) Brightness Sun altitude
Rises 00:53:58 0° 277° (W) 2,992 13.8 -26.2°
Reaches altitude 10° 00:56:01 10° 273° (W) 2,161 12.8 -26.6°
Maximum altitude 01:00:43 60° 193° (SSW) 979 10.0 -27.6°
Enters shadow 01:01:23 57° 163° (SSE) 1,049 10.0 -27.7°
